C/2019 T3 ( ATLAS )

Japanese version
Home page
Updated on February 20, 2021

---------------------------------------------------------------------

* Profile

Discovery Date October 6, 2019
Magnitude 18.9 mag
Discoverer Asteroid Terrestrial-Impact Last Alert System (ATLAS) search program

* Pictures

* Orbital Elements

Epoch 2021 Mar. 7.0 TT = JDT 2459280.5
T 2021 Mar. 2.70004 TT                                  Rudenko
q   5.9464951            (2000.0)            P               Q
z  +0.0002932      Peri.  112.27626     +0.60544740     +0.57396896
 +/-0.0000009      Node   139.52069     -0.19750481     -0.56273490
e   0.9982563      Incl.  121.86226     +0.77098982     -0.59488576
From 686 observations 2019 Jan. 17-2021 Jan. 18, mean residual 0".5.

* Magnitudes Graph

        m1 = -7.0 + 5 log d + 25 log r

---------------------------------------------------------------------

The orbital elements are published on M.P.E.C. 2021-B143.
The magnitudes graphs are made with Comet for Windows.

---------------------------------------------------------------------

Copyright(C) Seiichi Yoshida (comet@aerith.net). All rights reserved.